Presure
173 175 170 177 178 172 182 185 184 204 229 244 282 296 323 357 325 294 464 462 432 409 412 407 406 398 392 401 399 383 381 369 387 393 397 401 404 400 395 383 383 365 373 355 376 363 385 355 346 367 331 314 325 282
184 171 171 178 180 188 176 198 190 225 243 242 307 294 329 339 307 282 459 442 422 412 408 401 391 395 393 391 386 389 394 389 380 377 380 373 375 372 364 359 363 358 359 354 341 352 349 337 335 289 323 355 370 379
182 178 182 194 180 193 205 196 211 229 244 245 254 311 342 323 292 406 436 425 429 417 430 423 408 395 385 387 380 361 378 368 369 369 363 359 353 354 351 340 341 339 337 339 333 324 314 316 317 360 331 317 309 306
171 167 190 190 201 180 203 201 210 244 237 315 291 322 334 310 282 270 448 416 406 403 403 383 376 370 363 364 362 354 348 342 343 338 336 337 331 330 322 322 324 315 317 307 318 328 324 347 314 299 290 281 275 274
176 182 196 195 184 192 194 219 237 232 311 244 302 325 322 298 276 353 315 307 301 295 303 332 330 332 339 348 343 341 338 334 328 321 318 312 314 312 309 312 323 328 321 337 336 322 298 284 281 271 272 268 260 262
173 174 180 190 179 185 227 214 231 311 245 290 310 322 315 291 269 256 318 301 298 289 283 280 282 275 276 286 288 284 298 339 336 330 319 317 312 307 325 297 329 332 326 296 283 278 270 268 264 260 257 255 261 261
186 189 182 182 211 200 221 233 276 302 292 300 325 319 311 286 267 307 319 304 293 288 281 278 272 274 284 288 278 274 278 283 285 296 306 297 334 294 320 327 314 294 282 272 270 264 260 255 250 256 258 258 264 263
182 189 199 195 198 212 218 221 245 305 284 295 324 315 307 281 265 289 325 314 302 296 287 280 278 279 302 299 300 299 302 344 304 285 280 282 316 318 317 305 284 276 267 261 256 255 252 249 251 249 263 266 259 260
179 180 200 196 200 207 223 237 229 313 301 302 323 316 304 276 260 316 332 323 316 307 299 296 331 326 313 300 300 306 343 352 337 327 337 336 314 314 305 280 274 263 264 257 255 249 253 252 248 248 251 251 257 253
164 180 200 197 214 201 225 230 238 289 308 327 320 315 300 271 256 342 341 330 320 320 319 374 351 334 321 306 299 329 336 334 336 331 321 318 308 309 286 271 264 259 255 256 247 252 246 246 247 248 252 247 249 250
200 201 208 208 211 225 232 236 287 289 300 320 315 314 298 266 252 358 349 336 327 320 338 375 359 341 323 309 302 327 314 316 312 306 305 309 301 296 279 270 260 259 252 256 246 250 245 245 240 244 254 258 246 245
198 196 225 206 231 237 224 309 286 303 290 318 314 314 297 264 248 381 362 342 328 336 410 398 357 345 327 313 311 321 311 304 303 302 296 292 295 291 274 268 261 259 259 243 247 246 244 241 249 244 242 244 248 255
224 213 224 237 224 218 299 303 282 299 342 324 319 308 297 261 247 369 363 341 342 328 568 404 368 351 334 321 322 316 309 295 301 294 292 296 302 288 273 263 260 257 256 238 240 249 245 245 246 238 245 244 245 247
211 222 232 225 214 273 298 294 292 286 345 331 316 301 293 260 246 386 358 345 334 317 419 396 366 357 339 324 319 310 300 297 295 292 286 293 293 281 271 267 259 255 236 238 244 239 247 246 255 243 246 249 244 253
221 223 220 218 254 304 300 287 297 298 339 329 313 299 289 257 242 362 362 345 325 322 343 404 380 365 340 325 313 305 295 292 288 296 287 286 291 279 268 267 258 254 247 249 247 239 251 248 238 237 238 247 250 252
212 225 211 244 307 273 301 283 287 340 335 325 306 298 286 256 240 281 363 334 324 315 321 376 377 351 333 327 307 301 299 293 290 284 293 286 284 280 272 263 259 260 255 249 252 249 249 237 250 252 252 256 261 246
218 228 225 249 261 251 292 292 276 339 335 324 300 295 282 258 238 231 334 324 325 313 318 315 341 332 331 319 304 297 294 293 290 293 294 296 296 284 279 279 273 269 263 257 256 255 254 256 254 253 256 256 254 263
223 224 252 308 249 296 283 286 351 338 332 316 292 294 279 257 237 230 323 319 322 315 313 306 306 321 324 311 302 299 292 286 288 288 289 292 292 292 289 284 279 277 276 275 276 274 269 267 262 260 261 259 252 263
230 257 292 299 277 290 293 276 344 330 327 308 289 291 281 257 236 228 304 315 316 314 307 303 300 299 305 310 300 296 292 286 283 283 283 283 281 277 279 283 290 291 289 286 284 283 281 278 274 266 260 253 255 258
263 251 302 280 290 283 288 287 341 325 310 297 288 288 283 255 234 226 231 334 318 309 307 302 298 295 292 290 294 294 292 271 269 264 259 257 254 251 253 251 251 251 251 251 252 253 254 255 257 259 261 263 267 273
307 303 286 292 289 291 272 341 327 304 295 286 284 288 283 253 231 223 224 297 332 313 313 306 298 295 292 291 285 271 269 266 262 259 256 256 255 255 255 255 255 257 259 260 261 264 268 272 275 279 260 241 246 255
298 283 299 292 292 272 302 341 317 304 288 286 289 290 270 235 231 222 224 274 346 327 316 313 303 297 275 286 286 275 277 272 269 267 265 262 266 268 269 269 272 274 275 268 238 239 244 248 254 260 267 281 283 281
236 293 297 291 272 300 315 338 316 305 292 280 274 264 244 228 229 221 227 260 317 315 322 313 286 274 295 278 286 284 251 268 278 276 273 273 267 254 253 253 254 257 263 274 278 280 280 282 282 286 289 291 290 291
296 296 287 275 323 329 333 330 319 292 252 250 247 243 234 231 225 222 230 299 318 307 296 288 285 300 274 297 296 263 285 282 279 280 276 264 262 266 271 275 275 275 274 273 274 275 276 278 281 283 285 288 269 255
296 288 286 327 326 326 323 321 311 258 244 241 235 233 231 226 226 228 268 293 316 305 299 292 284 285 291 272 281 289 283 265 267 265 269 271 271 269 262 259 258 262 265 268 272 278 287 294 294 291 293 289 283 279
342 331 318 316 321 323 318 309 289 251 236 237 238 234 229 226 244 286 301 304 313 311 296 288 281 281 275 263 265 270 266 265 262 261 261 260 256 259 258 258 261 268 269 266 277 288 289 286 283 271 266 267 272 276
329 329 333 330 322 316 302 286 258 243 237 230 229 233 238 320 314 311 309 311 316 310 291 290 286 276 269 265 267 267 262 259 258 258 259 258 258 257 260 262 262 265 269 274 275 282 277 266 266 273 276 277 282 285
326 319 306 306 300 284 268 254 241 234 232 231 232 242 339 330 321 323 292 319 313 312 294 292 286 283 271 270 267 256 258 262 263 260 258 260 261 263 263 265 265 267 274 279 281 279 277 271 275 270 287 294 299 300
293 276 272 267 262 257 245 239 235 233 234 237 322 304 318 332 296 298 349 330 319 287 295 294 288 285 280 274 268 270 264 262 260 259 259 260 262 265 264 267 269 276 278 282 271 285 281 280 301 305 304 303 310 310
269 261 254 249 246 233 234 235 234 239 343 336 328 322 312 312 314 375 360 287 286 289 303 299 293 289 284 282 276 272 270 270 265 263 262 264 266 266 274 274 277 280 282 290 292 293 302 300 302 303 313 315 325 330
252 249 248 234 236 239 242 323 349 343 332 325 316 312 308 310 328 290 291 296 303 319 309 304 300 295 289 286 286 284 278 275 274 273 273 272 275 280 281 283 283 289 292 292 295 295 299 306 312 316 324 327 341 367
241 240 237 254 375 364 346 341 341 330 323 338 335 323 316 312 310 315 341 340 335 325 313 304 300 297 294 292 291 290 290 289 288 289 281 282 286 288 289 291 292 299 286 299 295 307 308 316 320 325 335 360 387 475
358 356 349 346 337 340 331 332 328 330 336 336 349 373 371 367 362 353 340 332 321 308 313 309 305 300 296 296 295 295 299 299 294 288 291 292 293 294 295 297 298 296 298 304 308 313 318 326 331 349 378 458 453 429
Wind_Speed
95 96 96 104 108 104 117 121 119 129 139 145 123 116 105 97 94 95 29 27 23 28 31 29 26 23 21 21 15 14 14 13 14 12 8 7 3 3 4 5 5 9 8 13 11 17 15 20 22 16 24 26 23 35
98 99 100 110 115 121 109 128 125 136 147 136 110 111 102 94 92 93 31 30 26 25 24 21 21 20 18 15 15 15 13 9 8 6 3 7 10 8 7 6 6 5 5 8 12 12 12 12 10 24 14 8 7 9
104 103 113 119 108 121 126 127 132 139 143 140 123 105 96 92 91 48 33 31 29 29 26 22 21 20 17 13 12 16 12 12 9 7 8 9 10 12 11 11 10 11 10 9 8 9 10 10 10 12 20 18 16 14
102 93 117 120 123 114 128 129 132 145 138 109 113 102 93 90 89 91 33 36 33 30 28 29 28 27 26 22 18 18 17 16 15 14 14 16 14 14 14 11 11 11 10 12 11 13 14 22 25 20 17 14 11 9
104 112 121 120 119 124 126 135 143 140 111 124 105 96 91 89 88 57 62 56 51 47 44 42 39 35 30 24 21 19 17 15 15 15 15 15 13 12 11 11 10 12 13 12 15 26 27 22 20 15 12 10 7 6
105 110 117 123 115 123 137 135 144 112 123 107 100 91 86 85 87 88 57 58 53 52 49 45 44 42 40 35 31 27 23 16 15 14 13 12 10 10 8 13 14 20 26 30 27 24 19 17 14 10 7 6 5 5
116 119 119 112 131 129 137 142 130 110 108 103 92 87 83 82 84 64 53 52 52 50 49 46 45 42 38 34 32 29 24 21 17 15 13 13 11 11 11 17 28 32 28 24 22 19 16 12 9 6 4 3 4 5
116 121 125 126 123 132 134 132 145 108 107 102 89 85 80 79 82 70 51 50 49 47 46 45 44 42 36 32 29 25 20 9 11 13 11 10 8 11 18 28 29 26 21 19 16 14 11 8 5 4 2 3 3 3
117 118 125 127 129 131 138 138 135 104 103 98 86 81 78 78 81 62 50 49 48 47 46 45 36 31 29 29 28 24 11 7 7 4 3 10 10 15 24 26 23 18 18 13 12 9 8 6 4 2 1 2 2 5
88 117 127 126 132 128 137 134 139 108 98 87 83 78 75 75 80 55 50 48 48 46 44 27 26 23 22 22 23 14 12 10 9 7 6 9 11 18 27 22 18 16 13 11 8 7 6 5 3 2 3 5 5 6
124 127 130 131 131 136 133 134 109 104 95 86 80 75 72 73 77 54 49 47 47 46 40 25 19 16 16 17 18 9 9 7 7 7 8 8 13 20 26 23 18 16 11 11 6 7 7 6 8 6 5 7 9 11
122 124 131 132 133 136 130 103 104 96 95 82 78 73 69 70 74 48 46 45 44 41 26 14 15 11 11 12 12 6 5 5 6 5 7 10 12 21 24 21 19 14 12 9 10 9 9 10 7 8 10 11 12 15
126 128 132 134 130 131 108 101 102 94 74 76 73 71 67 69 73 48 44 45 42 40 22 6 9 6 5 6 6 6 4 4 5 4 4 5 10 21 23 18 16 14 13 11 12 11 13 12 12 12 15 16 18 20
126 131 131 130 128 129 103 99 97 93 69 69 69 68 66 67 70 42 42 41 40 39 20 9 7 2 2 4 6 6 4 4 4 3 2 6 13 20 21 19 13 12 10 13 15 12 17 16 17 15 17 20 23 27
128 130 127 129 121 103 100 98 94 86 67 65 64 64 62 63 69 43 38 36 39 38 34 13 6 3 4 6 6 5 4 2 1 1 3 5 11 17 15 17 14 15 14 16 18 15 23 17 17 20 22 26 29 29
125 132 123 136 104 109 98 96 93 68 63 61 61 60 59 59 65 57 33 37 38 38 36 21 12 8 6 6 7 6 4 2 2 3 2 6 9 16 18 14 14 17 19 21 24 25 25 20 26 26 28 31 33 30
127 131 128 130 116 113 96 92 91 64 59 56 57 56 55 55 61 65 42 41 35 35 32 31 19 14 9 7 6 6 6 6 6 6 5 5 7 11 14 19 22 23 24 24 25 25 26 28 28 29 31 32 34 37
125 127 134 100 116 94 94 90 60 59 56 54 54 53 52 52 58 62 44 41 34 32 30 29 27 19 12 10 9 8 8 9 9 8 8 7 6 7 10 13 16 19 20 23 26 27 29 30 31 32 34 34 33 37
128 132 110 99 102 92 88 87 59 58 55 52 52 52 49 50 54 59 46 41 36 30 29 27 26 24 19 14 13 12 11 10 11 12 11 10 9 10 11 12 13 15 18 20 23 24 27 29 30 32 34 36 38 41
128 121 99 101 93 89 85 81 56 57 55 53 50 50 47 48 53 58 60 31 34 31 26 25 23 22 19 17 14 11 10 15 14 15 15 14 13 14 15 16 18 19 21 23 25 27 29 31 34 37 39 42 44 47
103 98 100 93 90 85 83 58 56 58 56 54 51 51 48 46 51 56 58 44 28 31 25 22 21 20 18 16 16 18 18 19 19 18 17 18 21 22 23 25 26 28 30 31 33 35 37 39 41 43 41 42 44 47
98 100 92 90 86 84 77 56 58 56 54 53 50 50 47 48 50 55 57 51 26 27 27 23 22 21 24 19 19 21 21 21 23 24 24 25 27 28 29 30 32 33 34 35 36 37 38 40 42 44 46 49 50 51
71 91 87 86 85 77 68 57 57 56 50 48 49 48 47 49 53 55 58 56 34 32 27 25 28 28 25 25 22 22 26 25 25 26 27 28 28 29 31 33 34 36 38 39 40 42 43 44 45 45 45 45 46 47
89 86 85 83 65 59 60 59 55 50 50 51 52 54 55 53 57 58 60 49 33 34 33 31 30 26 28 25 26 26 26 26 27 28 29 31 32 34 35 36 37 38 39 40 42 44 45 46 46 46 46 46 47 46
84 83 81 61 59 59 60 59 56 45 52 55 58 59 60 61 63 63 61 51 34 34 32 31 31 29 26 26 26 27 27 30 31 32 32 33 33 34 35 37 39 41 42 44 46 48 48 47 47 47 47 47 47 48
63 61 63 65 62 61 59 57 52 47 56 59 60 61 62 65 65 61 52 45 37 33 33 33 33 31 32 33 31 30 32 33 33 35 35 36 37 39 40 42 44 47 47 48 50 50 48 47 47 47 49 50 52 53
63 62 61 59 58 57 55 53 51 53 57 62 67 69 69 49 48 47 46 42 37 35 36 34 33 33 35 36 34 33 35 36 37 38 40 41 43 44 46 48 49 50 51 52 52 52 50 51 52 53 54 55 56 58
57 56 58 59 57 54 52 54 57 60 63 66 70 77 43 44 46 43 46 39 39 38 37 36 36 35 36 38 37 38 39 40 41 42 44 45 47 48 49 51 52 53 54 54 54 54 54 56 56 57 60 61 62 63
57 56 55 56 57 58 61 62 65 67 69 73 51 56 49 43 50 46 36 37 39 41 39 39 39 39 38 40 41 41 41 42 44 46 47 49 51 52 52 54 55 56 56 56 56 58 58 59 62 62 63 65 67 68
59 60 59 61 63 66 68 67 71 75 46 47 48 45 48 48 46 36 37 41 41 41 40 41 41 42 42 43 44 44 45 46 47 48 50 52 53 54 56 57 58 59 60 61 61 62 64 63 64 66 68 69 71 73
62 65 66 68 70 73 74 56 47 45 46 46 45 43 42 40 38 42 42 41 40 40 41 42 42 44 45 46 47 48 48 48 49 51 53 54 56 58 59 60 60 62 62 62 64 64 66 67 69 70 72 73 78 80
67 68 70 71 46 48 49 47 44 44 44 42 42 42 42 42 41 41 36 38 40 40 41 42 44 45 47 49 50 50 51 52 52 53 54 57 59 59 60 61 63 64 63 66 66 69 70 71 73 74 78 81 78 62
54 51 49 46 46 45 46 43 42 40 39 38 34 28 29 29 28 30 33 36 39 41 42 43 45 47 48 50 52 53 55 55 54 54 56 58 60 61 62 63 63 65 66 68 69 71 73 75 77 81 79 67 60 58
Wind_Direction
315 318 323 321 323 329 327 328 330 330 336 336 335 334 333 334 333 332 339 338 352 329 325 333 331 332 339 339 340 325 323 327 324 322 325 350 23 89 131 175 177 223 218 232 222 232 231 237 241 231 248 253 255 261
315 322 323 322 323 323 329 325 329 334 337 337 335 334 336 337 336 334 357 360 357 352 348 343 343 342 344 344 344 344 341 350 353 352 37 84 84 99 116 128 136 155 171 190 211 204 205 222 223 246 231 232 257 260
319 322 320 322 325 325 327 326 331 336 338 339 337 338 340 339 338 352 4 1 1 2 358 359 8 15 17 20 20 14 21 19 24 33 69 82 87 90 98 110 117 141 158 173 157 162 164 177 182 137 130 135 141 139
323 324 322 322 324 329 325 329 330 337 335 335 337 340 342 341 339 341 12 17 17 21 23 21 22 22 22 21 24 30 39 48 56 67 74 81 87 95 109 121 115 113 115 127 146 143 147 137 139 143 147 156 163 177
321 322 322 324 326 326 328 332 336 335 335 338 338 341 342 341 341 353 350 350 353 355 2 19 20 21 25 26 28 34 41 48 56 66 72 78 81 86 92 96 106 101 116 118 139 128 133 140 144 150 152 154 173 196
323 325 323 323 330 329 334 332 334 335 336 337 340 341 342 341 340 341 348 348 351 351 353 357 1 1 3 6 10 12 21 41 51 59 65 70 78 83 114 109 104 113 119 127 133 136 137 140 141 140 154 178 194 212
320 322 325 328 329 329 334 336 336 337 337 338 341 340 341 340 340 343 344 342 342 343 345 346 347 349 351 351 352 353 355 6 17 39 59 67 130 96 111 119 127 131 134 136 134 135 134 137 147 132 145 183 193 205
322 322 324 324 328 329 332 334 339 337 336 338 341 340 341 340 339 341 340 338 337 336 337 338 338 340 343 344 343 344 348 17 4 8 27 51 125 127 129 136 140 140 140 141 149 146 141 137 123 127 128 151 197 208
323 323 324 323 327 329 331 334 336 338 337 338 340 340 340 340 339 340 338 336 334 333 333 333 337 340 339 337 340 348 2 355 357 23 99 146 142 142 142 149 151 149 152 154 150 146 135 121 126 139 151 230 229 251
325 323 322 325 326 328 330 332 334 335 337 339 339 340 340 339 338 341 339 338 336 336 337 340 339 339 337 334 335 1 26 38 55 81 110 140 146 150 157 162 165 162 165 163 165 152 147 154 180 209 248 243 264 272
321 321 323 324 325 328 331 331 334 334 336 338 339 340 340 337 337 344 341 341 340 339 342 339 339 339 337 334 336 17 17 47 54 75 93 132 153 161 168 172 178 177 179 177 180 178 199 216 242 251 297 286 274 274
321 321 325 321 326 330 329 332 333 335 334 337 338 339 340 336 337 342 343 343 343 344 337 321 340 342 340 343 351 39 37 39 53 90 116 150 165 173 177 183 190 188 189 190 213 224 235 249 266 268 277 287 293 301
324 322 325 327 326 326 332 332 332 333 338 337 338 338 340 336 337 344 347 347 349 351 359 335 352 352 358 2 38 62 78 55 60 92 102 141 165 182 188 195 198 197 200 216 235 244 255 263 268 276 289 291 293 297
319 325 326 323 324 330 329 331 331 332 337 337 337 337 339 337 337 346 349 351 354 357 6 4 16 31 65 65 76 86 95 98 76 128 151 174 181 191 198 206 213 212 235 244 249 264 264 270 290 287 297 297 293 297
322 323 323 322 326 329 329 329 330 332 335 335 336 336 338 336 336 346 349 353 355 358 2 5 21 114 104 88 84 83 86 95 31 151 215 216 206 206 215 221 227 223 231 240 255 278 274 281 275 279 284 292 294 299
319 320 321 326 326 327 328 328 329 332 333 334 334 335 336 335 334 340 353 353 354 356 1 24 38 56 56 88 79 62 51 45 16 346 290 249 237 231 234 243 248 249 248 256 261 269 276 280 285 289 292 294 295 298
318 320 320 322 324 324 326 327 327 329 330 332 332 333 334 334 332 335 349 351 353 353 357 3 25 29 42 69 53 34 21 20 14 2 344 316 270 258 251 254 259 262 262 267 271 274 278 281 284 288 291 294 298 300
318 317 320 320 320 324 324 325 328 326 327 330 330 331 333 332 331 334 344 345 349 350 353 357 0 10 15 12 8 7 7 5 8 7 10 5 342 304 284 275 271 273 276 278 280 281 283 285 288 291 293 296 298 299
315 319 319 317 320 322 322 322 325 324 325 326 328 328 331 329 329 331 342 339 341 344 346 350 353 355 359 358 357 356 351 349 349 351 348 349 346 336 331 320 309 298 296 297 297 297 296 297 297 298 298 300 300 300
315 317 314 317 318 320 320 321 321 320 322 323 325 325 328 327 327 329 335 329 332 335 336 339 341 342 346 348 349 351 353 353 354 353 350 348 345 337 334 328 323 318 314 311 308 305 303 301 301 300 299 299 299 299
312 313 313 315 316 317 316 316 316 316 318 320 322 322 323 325 324 327 331 335 320 326 326 326 326 328 327 324 323 329 329 328 330 331 331 327 326 323 321 318 316 312 309 307 304 301 299 298 298 298 302 304 303 301
310 311 312 313 314 313 314 310 312 312 315 316 319 319 320 322 322 323 329 332 312 314 317 316 314 313 321 316 313 314 311 314 314 314 315 317 315 314 313 311 308 305 305 304 306 304 303 301 302 302 303 303 303 302
308 309 309 310 309 309 308 304 307 309 314 315 316 317 317 318 318 321 326 329 322 315 310 310 313 318 306 311 309 308 314 311 308 309 311 311 310 309 308 308 308 308 309 310 310 309 309 308 309 309 309 309 307 306
305 305 306 306 305 303 299 301 303 307 307 309 311 312 314 317 316 320 324 325 317 313 315 312 311 303 310 303 303 312 307 309 310 310 310 310 311 311 312 313 314 315 315 316 315 313 311 310 308 308 309 309 305 306
303 302 303 302 298 296 297 300 302 301 302 304 307 309 313 314 314 318 318 319 308 310 309 307 307 305 305 307 308 306 307 309 309 309 309 310 312 313 314 313 312 313 314 315 314 314 312 312 311 311 311 311 310 310
299 301 298 297 296 296 297 298 299 300 300 301 303 306 309 310 310 307 307 307 303 301 303 302 302 300 300 306 307 304 305 306 308 309 311 311 312 312 312 314 314 315 315 314 315 315 314 313 312 310 308 308 309 308
299 296 295 294 294 295 296 297 298 298 300 304 305 306 308 297 295 295 297 295 292 292 298 296 296 296 298 300 301 300 304 306 308 308 308 310 311 312 312 312 312 313 313 313 313 312 310 310 309 310 310 309 309 309
296 293 293 294 296 297 295 294 299 302 303 304 305 305 291 288 289 289 296 281 284 283 292 290 291 290 293 294 295 302 303 302 302 305 307 307 307 307 308 309 309 310 311 312 311 310 309 309 309 309 311 311 311 311
293 293 293 292 293 293 296 300 301 303 302 302 291 293 289 285 296 295 270 269 273 291 286 285 287 288 288 290 293 292 295 298 300 302 303 303 303 304 306 306 308 309 310 311 308 310 309 309 314 313 313 313 314 313
291 292 293 293 294 297 299 300 300 299 289 288 287 285 285 288 289 269 266 287 288 287 278 279 281 283 285 286 288 291 293 293 296 298 299 300 301 303 305 306 308 309 311 312 313 313 315 313 314 314 315 315 316 316
289 291 292 294 295 296 297 292 289 288 287 286 288 287 285 285 279 284 284 283 282 270 274 276 278 281 284 286 288 289 291 293 296 297 298 300 302 304 305 306 308 309 311 312 314 314 314 315 316 316 317 316 316 315
288 290 292 293 286 286 289 291 291 290 289 285 282 282 280 279 280 280 268 265 265 268 272 276 278 280 282 285 288 291 292 294 296 298 299 301 303 304 306 307 308 309 311 312 312 315 315 316 316 316 316 315 314 313
291 291 290 289 289 289 289 290 290 289 287 284 282 280 276 274 270 265 266 268 270 274 273 275 277 281 284 286 288 290 293 296 297 299 301 302 303 304 305 307 308 310 311 312 313 315 315 316 316 315 315 315 315 314